Regional Weather Roundup
Issued by NWS

Home | Current Version | Previous Version | Text Only | Print | Product List | Glossary On
Versions: 1 2 3 4 5 6 7 8 9 10 11 12 13 14 15 16 17 18 19 20 21 22 23 24 25 26 27 28 29 30 31 32 33 34 35 36 37 38 39 40 41 42 43 44 45 46 47 48 49 50
000
ASUS45 KREV 281910
RWRNV
NEVADA REGIONAL WEATHER ROUNDUP
NATIONAL WEATHER SERVICE RENO NV
1200 PM PDT FRI AUG 28 2015

NOTE: "FAIR" INDICATES FEW OR NO CLOUDS BELOW 12,000 FEET WITH NO
SIGNIFICANT WEATHER AND/OR OBSTRUCTIONS TO VISIBILITY.

NVZ001-003-004-282000-
WESTERN NEVADA

CITY           SKY/WX    TMP DP  RH WIND       PRES   REMARKS
RENO           CLOUDY    85  38  18 CALM      30.13F
CARSON CITY    FAIR      86  30  13 CALM      30.15F
MINDEN         FAIR      84  34  16 SW6       30.15F
SLIDE MTN        N/A     59  34  38 W10         N/A
PYRAMID LAKE     N/A     81 N/A N/A NE8         N/A
FALLON         CLOUDY    89  38  16 CALM      30.10F
LOVELOCK       SUNNY     87  36  16 SW7       30.10F
HAWTHORNE      SUNNY     88  37  16 CALM      30.10F
$$

NVZ002-CAZ072-073-282000-
NORTHERN AND CENTRAL SIERRA

CITY           SKY/WX    TMP DP  RH WIND       PRES   REMARKS
S. LAKE TAHOE  MOSUNNY   81  31  16 VRB6      30.26F
TRUCKEE        SUNNY     79  34  19 SW16G22   30.25S
SQUAW VLY 8000   N/A     70  36  28 SW3         N/A
SUSANVILLE     SUNNY     82  43  24 S3        30.11F
BLUE CANYON    PTSUNNY   77  39  25 S8G20     30.24S
MAMMOTH LAKES  FAIR      79  34  19 E7        30.33F
BRIDGEPORT     FAIR      81  28  14 SW13G18   30.28F
$$

NVZ030-031-036-282000-
NORTHERN NEVADA

CITY           SKY/WX    TMP DP  RH WIND       PRES   REMARKS
ELKO           SUNNY     88  40  18 VRB6      30.15F
WINNEMUCCA     NOT AVBL
WENDOVER       SUNNY     82  41  23 E7        30.17F
$$

NVZ035-037-282000-
CENTRAL NEVADA

CITY           SKY/WX    TMP DP  RH WIND       PRES   REMARKS
ELY            SUNNY     84  41  21 VRB6      30.28F
EUREKA           N/A     87  36  16 S13G24    30.22F
$$

NVZ013-014-282000-
SOUTH CENTRAL NEVADA

CITY           SKY/WX    TMP DP  RH WIND       PRES   REMARKS
TONOPAH        MOSUNNY   87  40  19 S16G25    30.20F
$$

NVZ017-020-022-282000-
SOUTHERN NEVADA

CITY           SKY/WX    TMP DP  RH WIND       PRES   REMARKS
LAS VEGAS      MOSUNNY   98  52  21 CALM      29.95F
N. LAS VEGAS   SUNNY     96  53  23 SE5       29.98F
NELLIS AFB     SUNNY     98  56  24 E7        29.95F
HENDERSON        N/A    N/A N/A N/A MISG        N/A
MERCURY        SUNNY     96  46  18 VRB5      30.05F
$$



USA.gov is the U.S. government's official web portal to all federal, state and local government web resources and services.